| time (UTC) | temp F | wind direction | speed MPH | gust MPH | rain 1hr in | rain 24hr in | rain mn in | humidity % | barometer mb |
| 20260906233044 | 64 | 331 | 5.0 | 10.0 | 0.00 | 0.11 | 0.00 | 72 | 1015.5 |
| 20260906231542 | 64 | 302 | 6.0 | 11.0 | 0.00 | 0.11 | 0.00 | 73 | 1015.6 |
| 20260906230058 | 63 | 271 | 8.0 | 14.0 | 0.00 | 0.11 | 0.00 | 74 | 1015.8 |
| 20260906224546 | 63 | 307 | 7.0 | 18.0 | 0.00 | 0.11 | 0.00 | 76 | 1015.9 |
| 20260906223047 | 63 | 296 | 7.0 | 15.0 | 0.00 | 0.11 | 0.00 | 78 | 1016.0 |
| 20260906221547 | 63 | 276 | 10.0 | 15.0 | 0.00 | 0.11 | 0.00 | 79 | 1016.1 |
| 20260906220052 | 63 | 274 | 7.0 | 12.0 | 0.00 | 0.11 | 0.00 | 77 | 1016.1 |
| 20260906214547 | 63 | 323 | 0.0 | 2.0 | 0.00 | 0.11 | 0.00 | 74 | 1016.1 |
| 20260906213045 | 63 | 63 | 1.0 | 4.0 | 0.00 | 0.11 | 0.00 | 73 | 1016.1 |
| 20260906211544 | 64 | 76 | 0.0 | 6.0 | 0.00 | 0.11 | 0.00 | 73 | 1016.1 |
| 20260906210049 | 64 | 89 | 4.0 | 8.0 | 0.00 | 0.11 | 0.00 | 73 | 1016.0 |
| 20260906204556 | 63 | 44 | 5.0 | 9.0 | 0.00 | 0.11 | 0.00 | 74 | 1016.1 |
| 20260906203050 | 63 | 76 | 2.0 | 9.0 | 0.00 | 0.11 | 0.00 | 74 | 1016.3 |
| 20260906201547 | 63 | 84 | 7.0 | 11.0 | 0.00 | 0.11 | 0.00 | 73 | 1016.3 |
| 20260906200050 | 62 | 65 | 8.0 | 13.0 | 0.00 | 0.11 | 0.00 | 72 | 1016.4 |
| 20260906194545 | 63 | 65 | 8.0 | 13.0 | 0.00 | 0.11 | 0.00 | 73 | 1016.5 |
| 20260906193046 | 63 | 83 | 2.0 | 9.0 | 0.00 | 0.11 | 0.00 | 74 | 1016.6 |
| 20260906191552 | 63 | 0 | 0.0 | 5.0 | 0.00 | 0.11 | 0.00 | 75 | 1016.6 |
| 20260906190054 | 62 | 327 | 1.0 | 9.0 | 0.00 | 0.11 | 0.00 | 77 | 1016.6 |
| 20260906184548 | 62 | 0 | 6.0 | 14.0 | 0.00 | 0.11 | 0.00 | 78 | 1016.7 |
| 20260906183049 | 61 | 69 | 11.0 | 15.0 | 0.00 | 0.11 | 0.00 | 78 | 1016.6 |
| 20260906181558 | 61 | 76 | 9.0 | 17.0 | 0.00 | 0.11 | 0.00 | 80 | 1016.9 |
| 20260906180052 | 61 | 69 | 13.0 | 22.0 | 0.00 | 0.11 | 0.00 | 83 | 1017.0 |
| 20260906174548 | 59 | 69 | 9.0 | 15.0 | 0.00 | 0.11 | 0.00 | 90 | 1017.0 |
| 20260906173047 | 57 | 80 | 16.0 | 24.0 | 0.00 | 0.11 | 0.00 | 91 | 1017.0 |
| 20260906171555 | 56 | 74 | 0.0 | 13.0 | 0.00 | 0.11 | 0.00 | 89 | 1017.7 |
| 20260906170051 | 56 | 322 | 10.0 | 17.0 | 0.00 | 0.11 | 0.00 | 89 | 1018.3 |
| 20260906164544 | 56 | 314 | 8.0 | 14.0 | 0.00 | 0.11 | 0.00 | 88 | 1018.4 |
| 20260906163045 | 55 | 265 | 8.0 | 14.0 | 0.00 | 0.11 | 0.00 | 88 | 1018.5 |
| 20260906161543 | 55 | 296 | 8.0 | 15.0 | 0.00 | 0.11 | 0.00 | 88 | 1018.3 |
| 20260906160051 | 55 | 313 | 13.0 | 18.0 | 0.00 | 0.11 | 0.00 | 89 | 1018.3 |
| 20260906154544 | 54 | 311 | 13.0 | 21.0 | 0.00 | 0.11 | 0.00 | 88 | 1018.4 |
| 20260906153044 | 54 | 303 | 13.0 | 21.0 | 0.00 | 0.11 | 0.00 | 87 | 1018.8 |
| 20260906151552 | 54 | 315 | 16.0 | 20.0 | 0.00 | 0.11 | 0.00 | 88 | 1018.9 |
| 20260906150045 | 54 | 301 | 18.0 | 26.0 | 0.00 | 0.11 | 0.00 | 88 | 1018.9 |
| 20260906144546 | 54 | 312 | 23.0 | 30.0 | 0.00 | 0.12 | 0.00 | 88 | 1018.8 |
| 20260906143042 | 55 | 316 | 18.0 | 30.0 | 0.00 | 0.12 | 0.00 | 88 | 1019.4 |
| 20260906141549 | 56 | 257 | 13.0 | 21.0 | 0.00 | 0.12 | 0.00 | 85 | 1019.2 |
| 20260906140049 | 59 | 329 | 0.0 | 2.0 | 0.00 | 0.12 | 0.00 | 84 | 1018.8 |
| 20260906134544 | 59 | 0 | 0.0 | 1.0 | 0.00 | 0.16 | 0.00 | 84 | 1018.9 |
| 20260906133051 | 59 | 0 | 0.0 | 1.0 | 0.00 | 0.16 | 0.00 | 83 | 1018.5 |
| 20260906131542 | 58 | 309 | 4.0 | 11.0 | 0.00 | 0.16 | 0.00 | 82 | 1018.5 |
| 20260906130119 | 59 | 321 | 0.0 | 6.0 | 0.00 | 0.16 | 0.00 | 84 | 1018.5 |
| 20260906124549 | 57 | 0 | 1.0 | 11.0 | 0.00 | 0.16 | 0.00 | 85 | 1018.8 |
| 20260906123045 | 57 | 296 | 10.0 | 15.0 | 0.00 | 0.16 | 0.00 | 84 | 1019.2 |
| 20260906121551 | 58 | 83 | 11.0 | 19.0 | 0.00 | 0.16 | 0.00 | 85 | 1018.2 |
| 20260906120107 | 57 | 0 | 1.0 | 9.0 | 0.00 | 0.16 | 0.00 | 84 | 1018.3 |
| 20260906114548 | 58 | 0 | 0.0 | 9.0 | 0.00 | 0.16 | 0.00 | 83 | 1018.6 |
| 20260906113052 | 58 | 355 | 0.0 | 4.0 | 0.00 | 0.16 | 0.00 | 83 | 1018.9 |
| 20260906111544 | 58 | 54 | 0.0 | 8.0 | 0.00 | 0.16 | 0.00 | 83 | 1018.8 |
| 20260906110044 | 58 | 85 | 1.0 | 7.0 | 0.00 | 0.16 | 0.00 | 83 | 1018.8 |
| 20260906104548 | 58 | 75 | 0.0 | 4.0 | 0.00 | 0.16 | 0.00 | 82 | 1018.8 |
| 20260906103053 | 58 | 0 | 1.0 | 10.0 | 0.00 | 0.16 | 0.00 | 83 | 1018.8 |
| 20260906101556 | 57 | 63 | 0.0 | 8.0 | 0.00 | 0.16 | 0.00 | 84 | 1018.8 |
| 20260906100045 | 57 | 0 | 1.0 | 5.0 | 0.00 | 0.16 | 0.00 | 84 | 1018.8 |
| 20260906094547 | 57 | 13 | 2.0 | 11.0 | 0.00 | 0.16 | 0.00 | 84 | 1018.8 |
| 20260906093052 | 57 | 352 | 2.0 | 14.0 | 0.00 | 0.16 | 0.00 | 84 | 1018.7 |
| 20260906091544 | 57 | 333 | 9.0 | 17.0 | 0.00 | 0.16 | 0.00 | 84 | 1018.9 |
| 20260906090051 | 58 | 321 | 4.0 | 17.0 | 0.00 | 0.16 | 0.00 | 84 | 1019.1 |
| 20260906084545 | 57 | 320 | 10.0 | 15.0 | 0.00 | 0.16 | 0.00 | 84 | 1019.5 |
| 20260906083045 | 58 | 329 | 9.0 | 20.0 | 0.00 | 0.16 | 0.00 | 84 | 1019.7 |
| 20260906081546 | 57 | 312 | 8.0 | 13.0 | 0.00 | 0.16 | 0.00 | 86 | 1019.9 |
| 20260906080053 | 58 | 292 | 4.0 | 8.0 | 0.00 | 0.16 | 0.00 | 84 | 1020.0 |
| 20260906074546 | 57 | 0 | 0.0 | 3.0 | 0.00 | 0.16 | 0.00 | 85 | 1019.8 |
| 20260906073044 | 57 | 334 | 0.0 | 3.0 | 0.00 | 0.16 | 0.00 | 85 | 1019.8 |
| 20260906071544 | 57 | 0 | 0.0 | 3.0 | 0.00 | 0.16 | 0.00 | 83 | 1019.9 |
| 20260906070054 | 57 | 311 | 1.0 | 9.0 | 0.00 | 0.16 | 0.00 | 82 | 1019.9 |
| 20260906064545 | 58 | 0 | 1.0 | 8.0 | 0.00 | 0.16 | 0.00 | 80 | 1020.1 |
| 20260906063045 | 58 | 294 | 1.0 | 14.0 | 0.00 | 0.16 | 0.00 | 81 | 1020.2 |
| 20260906061546 | 57 | 327 | 18.0 | 25.0 | 0.00 | 0.16 | 0.00 | 84 | 1020.4 |
| 20260906060059 | 57 | 275 | 1.0 | 4.0 | 0.00 | 0.16 | 0.00 | 83 | 1020.7 |
| 20260906054546 | 58 | 0 | 1.0 | 11.0 | 0.00 | 0.16 | 0.16 | 79 | 1020.4 |
| 20260906053044 | 57 | 321 | 4.0 | 12.0 | 0.01 | 0.16 | 0.16 | 82 | 1020.2 |
| 20260906051544 | 57 | 344 | 3.0 | 11.0 | 0.01 | 0.16 | 0.16 | 84 | 1019.9 |
| 20260906050054 | 57 | 323 | 7.0 | 12.0 | 0.01 | 0.16 | 0.16 | 83 | 1020.1 |
| 20260906044545 | 57 | 325 | 2.0 | 9.0 | 0.01 | 0.16 | 0.16 | 85 | 1020.0 |
| 20260906043043 | 57 | 334 | 2.0 | 11.0 | 0.00 | 0.15 | 0.15 | 84 | 1019.5 |
| 20260906041543 | 57 | 333 | 1.0 | 11.0 | 0.00 | 0.15 | 0.15 | 83 | 1019.7 |
| 20260906040050 | 57 | 336 | 4.0 | 14.0 | 0.10 | 0.15 | 0.15 | 82 | 1018.8 |
| 20260906034545 | 58 | 314 | 9.0 | 18.0 | 0.10 | 0.15 | 0.15 | 81 | 1019.1 |
| 20260906033045 | 58 | 345 | 8.0 | 15.0 | 0.10 | 0.15 | 0.15 | 79 | 1019.5 |
| 20260906031554 | 60 | 323 | 9.0 | 15.0 | 0.10 | 0.15 | 0.15 | 75 | 1020.0 |
| 20260906030050 | 62 | 261 | 8.0 | 12.0 | 0.00 | 0.05 | 0.05 | 64 | 1021.1 |
| 20260906024547 | 62 | 17 | 4.0 | 15.0 | 0.00 | 0.05 | 0.05 | 65 | 1018.5 |
| 20260906023050 | 62 | 121 | 2.0 | 12.0 | 0.00 | 0.05 | 0.05 | 63 | 1017.9 |
| 20260906021546 | 63 | 5 | 0.0 | 5.0 | 0.00 | 0.05 | 0.05 | 61 | 1017.9 |
| 20260906020050 | 64 | 346 | 0.0 | 4.0 | 0.00 | 0.05 | 0.05 | 59 | 1017.9 |
| 20260906014551 | 64 | 0 | 0.0 | 6.0 | 0.00 | 0.05 | 0.05 | 58 | 1017.9 |
| 20260906013046 | 65 | 35 | 0.0 | 5.0 | 0.00 | 0.05 | 0.05 | 57 | 1018.0 |
| 20260906011543 | 66 | 0 | 1.0 | 10.0 | 0.00 | 0.05 | 0.05 | 55 | 1018.1 |
| 20260906010044 | 67 | 59 | 1.0 | 6.0 | 0.00 | 0.05 | 0.05 | 54 | 1018.0 |
| 20260906004542 | 68 | 345 | 0.0 | 6.0 | 0.00 | 0.05 | 0.05 | 53 | 1018.0 |
| 20260906003044 | 68 | 317 | 12.0 | 23.0 | 0.00 | 0.05 | 0.05 | 53 | 1018.1 |
| 20260906001544 | 69 | 336 | 18.0 | 25.0 | 0.00 | 0.05 | 0.05 | 50 | 1018.1 |
| 20260906000045 | 70 | 313 | 12.0 | 21.0 | 0.00 | 0.05 | 0.05 | 49 | 1018.0 |
| 20260905234545 | 70 | 313 | 14.0 | 20.0 | 0.00 | 0.05 | 0.05 | 48 | 1018.1 |